STARLINK-36557, 67500

Orbit data source: Space-Track

STARLINK-36557, 67500 is a payload satellite owned by SpaceX/Seattle (US) in LEO that was launched on Sun, 18 Jan 2026 UTC via an FALCON 9 launch vehicle from the Air Force Eastern Test Range (AFETR). Payload-class satellites include a variety of spacecraft equipped with specific instruments for various scientific and technological missions. These include communications satellites like Starlink; space stations such as the ISS; scientific satellites like the Hubble; Earth observation satellites from companies like Planet Labs, Umbra, and HawkEye 360; GPS; miniature CubeSats for education and research; and military/defense satellites.

Loading next visibility...
Identifier
67500, 2026-012H
Orbit
LEO
Country
Flag of USUS
Related business
Manufacturer
SpaceX/Seattle
Mission
Operational spacecraft
Bus & Motor
STARLINK V2MO, Unknown motor
Mass
575 kg wet, ~530 kg dry
Launch date (UTC)
2026-01-18 (2 weeks ago)
Launch vehicle
FALCON 9
Launch site
Air Force Eastern Test Range (AFETR)
Object type
Payload
Rocket body
Debris
Shape & HBR
Unknown shape, 17.7 m
Radar Cross Section
RCS unknown

Expand to show TLE details & history
Last TLE update: 12 hours ago

TLE from 12 hours ago
0 STARLINK-36557
1 67500U 26012H   26034.58335648  .00006168  00000-0  31812-4 0  9996
2 67500  42.9966 150.4857 0001112 267.4630 179.3918 15.82006218  3586
Epoch: 2026-02-03T14:00Z
TLE epoch observation values (Epoch: 2026-02-03T14:00:01.999Z)
Latitude
43.07755°
Longitude
-107.58584°
Altitude
328.606 km
Speed
7.717 km/s
True Right ascension
15h 44m 44s
True Declination
42° 53' 42"
Sunlit
Object was in daylight at epoch
Visualization orbit readout
Latitude
Unknown
Longitude
Unknown
Altitude
Unknown
Speed
Unknown
Apparent Right ascension
Unknown
Apparent Declination
Unknown
Sunlit
N/A
Visualization observer readout
Local Sidereal Time
04:10:18
Azimuth
Unknown
Elevation
Unknown
Doppler factor
Unknown
Orbital elements
Apogee altitude
327.505 km
Perigee altitude
326.014 km
Semi-major axis
6,704.896 km
Eccentricity
0.00011
Inclination
42.9966°
RAAN
150.4857°
Arg. of periapsis
267.463°
True anomaly
179.39194°
Mean anomaly
179.3918°
Eccentric anomaly
179.39187°
Mean motion
3.95326 °/min
Orbital period
91.06 mins
BSTAR
0.000031812
Loading maneuver chart data...
Computing Atmospheric mass density...
Loading historical data...
Loading historical data...
Loading historical data...
Loading historical data...
Loading historical data...
Loading historical data...
Loading historical data...

Documentation

Showing up to 5 results
|